TimeCST,TemperatureF,Dew PointF,Humidity,Sea Level PressureIn,VisibilityMPH,Wind Direction,Wind SpeedMPH,Gust SpeedMPH,PrecipitationIn,Events,Conditions,WindDirDegrees,DateUTC
12:06 AM,64.4,60.8,88,29.64,6.0,East,12.7,-,N/A,,Overcast,90,2013-02-25 06:06:00
1:35 AM,64.4,62.6,94,29.60,2.5,ESE,12.7,-,N/A,,Overcast,110,2013-02-25 07:35:00
1:53 AM,64.0,62.1,93,29.60,4.0,ESE,8.1,-,N/A,,Overcast,110,2013-02-25 07:53:00
2:27 AM,64.4,62.6,94,29.59,5.0,East,9.2,-,N/A,,Overcast,100,2013-02-25 08:27:00
2:45 AM,64.4,62.6,94,29.58,6.0,ESE,11.5,-,N/A,,Overcast,120,2013-02-25 08:45:00
2:53 AM,64.9,62.1,90,29.57,6.0,ESE,9.2,-,N/A,,Overcast,110,2013-02-25 08:53:00
3:08 AM,64.4,62.6,94,29.57,6.0,SE,9.2,-,N/A,,Overcast,130,2013-02-25 09:08:00
3:53 AM,66.9,64.0,90,29.55,5.0,SE,9.2,-,N/A,,Overcast,130,2013-02-25 09:53:00
4:00 AM,66.2,64.4,94,29.56,5.0,SE,9.2,-,N/A,,Overcast,130,2013-02-25 10:00:00
4:53 AM,68.0,66.0,93,29.56,2.0,SSE,5.8,-,N/A,,Overcast,150,2013-02-25 10:53:00
5:02 AM,68.0,66.2,94,29.56,1.0,SSE,5.8,-,N/A,,Overcast,160,2013-02-25 11:02:00
5:10 AM,68.0,66.2,94,29.56,0.5,SSE,6.9,-,N/A,Fog,Fog,160,2013-02-25 11:10:00
5:53 AM,68.0,66.0,93,29.56,0.2,SSE,6.9,-,N/A,Fog,Fog,160,2013-02-25 11:53:00
6:53 AM,66.9,64.9,93,29.57,0.2,SSE,5.8,-,N/A,Fog,Fog,160,2013-02-25 12:53:00
7:51 AM,68.0,66.2,94,29.61,1.2,WSW,10.4,-,0.00,Rain,Light Rain,250,2013-02-25 13:51:00
7:53 AM,68.0,66.9,96,29.61,1.2,WSW,10.4,-,0.00,Rain,Light Rain,250,2013-02-25 13:53:00
8:02 AM,69.8,66.2,88,29.61,2.0,WSW,6.9,-,0.00,,Overcast,240,2013-02-25 14:02:00
8:51 AM,69.8,66.2,88,29.61,2.5,West,10.4,-,0.00,,Overcast,280,2013-02-25 14:51:00
8:53 AM,70.0,66.9,90,29.61,2.5,West,10.4,-,0.00,,Overcast,270,2013-02-25 14:53:00
9:03 AM,69.8,66.2,88,29.61,3.0,West,12.7,17.3,N/A,,Mostly Cloudy,270,2013-02-25 15:03:00
9:11 AM,71.6,66.2,83,29.61,4.0,West,13.8,-,N/A,,Haze,270,2013-02-25 15:11:00
9:32 AM,66.2,57.2,73,29.64,10.0,NW,25.3,36.8,N/A,,Mostly Cloudy,320,2013-02-25 15:32:00
9:40 AM,66.2,55.4,68,29.64,10.0,NW,23.0,34.5,N/A,,Mostly Cloudy,320,2013-02-25 15:40:00
9:53 AM,69.1,51.1,53,29.65,10.0,NW,23.0,34.5,N/A,,Mostly Cloudy,320,2013-02-25 15:53:00
10:53 AM,73.0,36.0,26,29.66,10.0,NW,23.0,33.4,N/A,,Partly Cloudy,320,2013-02-25 16:53:00
11:53 AM,75.2,35.6,24,29.65,10.0,WNW,21.9,34.5,N/A,,Partly Cloudy,290,2013-02-25 17:53:00
12:53 PM,75.9,25.0,15,29.65,10.0,WNW,27.6,36.8,N/A,,Unknown,290,2013-02-25 18:53:00
1:53 PM,75.9,16.0,10,29.62,7.0,West,28.8,41.4,N/A,,Partly Cloudy,280,2013-02-25 19:53:00
2:20 PM,75.2,15.8,11,29.61,8.0,West,32.2,49.5,N/A,,Mostly Cloudy,280,2013-02-25 20:20:00
2:30 PM,73.4,17.6,12,29.61,8.0,West,25.3,41.4,N/A,,Scattered Clouds,270,2013-02-25 20:30:00
2:53 PM,73.9,19.9,13,29.62,8.0,WNW,31.1,43.7,N/A,,Mostly Cloudy,290,2013-02-25 20:53:00
3:53 PM,71.1,24.1,17,29.63,8.0,WNW,34.5,46.0,N/A,,Mostly Cloudy,290,2013-02-25 21:53:00
4:53 PM,66.9,24.1,20,29.67,6.0,West,26.5,44.9,N/A,,Haze,280,2013-02-25 22:53:00
5:53 PM,64.0,24.1,22,29.69,10.0,West,27.6,41.4,N/A,,Partly Cloudy,280,2013-02-25 23:53:00
7:53 PM,60.1,26.1,27,29.76,10.0,WNW,23.0,33.4,N/A,,Clear,290,2013-02-26 01:53:00
8:53 PM,57.0,28.0,33,29.81,10.0,WNW,23.0,32.2,N/A,,Clear,300,2013-02-26 02:53:00
9:53 PM,55.0,28.0,35,29.83,10.0,WNW,24.2,35.7,N/A,,Clear,290,2013-02-26 03:53:00
10:53 PM,53.1,30.0,41,29.85,10.0,WNW,20.7,28.8,N/A,,Clear,300,2013-02-26 04:53:00
11:53 PM,52.0,30.0,43,29.84,10.0,WNW,18.4,27.6,N/A,,Clear,300,2013-02-26 05:53:00